Time,TemperatureF,DewpointF,PressureIn,WindDirection,WindDirectionDegrees,WindSpeedMPH,WindSpeedGustMPH,Humidity,HourlyPrecipIn,Conditions,Clouds,dailyrainin,SoftwareType,DateUTC
2013-02-11 02:19:00,45.5,23.2,29.83,West,276,0.0,0.0,41,0.00, ,SKC,-99.99,VWS V12.07,2013-02-11 00:19:00,
2013-02-11 02:22:00,45.5,23.2,29.83,West,275,0.0,0.0,41,0.00, ,SKC,-99.99,VWS V12.07,2013-02-11 00:22:00,
2013-02-11 09:49:00,52.5,15.8,29.92,WSW,237,2.7,4.9,23,0.00, ,SKC,-99.99,VWS V12.07,2013-02-11 07:49:00,
2013-02-11 09:50:00,52.5,13.7,29.92,WSW,251,2.7,4.9,21,0.00, ,SKC,-99.99,VWS V12.07,2013-02-11 07:50:00,
2013-02-11 09:52:00,52.5,13.7,29.92,WSW,245,3.6,4.9,21,0.00, ,SKC,-99.99,VWS V12.07,2013-02-11 07:52:00,
2013-02-11 09:56:00,52.9,14.0,29.92,WNW,289,4.0,5.8,21,0.00, ,SKC,-99.99,VWS V12.07,2013-02-11 07:56:00,
2013-02-11 14:48:00,57.4,12.9,29.95,SW,229,6.3,6.3,17,0.00, ,SKC,-99.99,VWS V12.07,2013-02-11 12:48:00,
2013-02-11 15:03:00,55.9,11.8,29.95,West,271,3.1,6.3,17,0.00, ,SKC,-99.99,VWS V12.07,2013-02-11 13:03:00,
2013-02-11 15:09:00,54.9,12.2,29.95,SW,236,5.8,11.4,18,0.00, ,SKC,-99.99,VWS V12.07,2013-02-11 13:09:00,
2013-02-11 15:14:00,54.1,11.6,29.95,SW,227,2.7,11.4,18,0.00, ,SKC,-99.99,VWS V12.07,2013-02-11 13:14:00,
2013-02-11 15:19:00,53.8,11.3,29.95,WSW,240,2.7,11.4,18,0.00, ,SKC,-99.99,VWS V12.07,2013-02-11 13:19:00,
2013-02-11 19:05:00,48.0,15.6,30.04,SW,220,2.7,4.0,27,0.00, ,SKC,-99.99,VWS V12.07,2013-02-11 17:05:00,
2013-02-11 19:11:00,48.0,15.6,30.04,West,278,4.9,4.9,27,0.00, ,SKC,-99.99,VWS V12.07,2013-02-11 17:11:00,
2013-02-11 19:16:00,47.8,15.5,30.04,WNW,282,2.2,4.9,27,0.00, ,SKC,-99.99,VWS V12.07,2013-02-11 17:16:00,
2013-02-11 19:21:00,47.7,15.3,30.04,WNW,282,0.0,0.0,27,0.00, ,SKC,-99.99,VWS V12.07,2013-02-11 17:21:00,
2013-02-11 19:26:00,47.7,15.3,30.04,West,277,4.0,4.9,27,0.00, ,SKC,-99.99,VWS V12.07,2013-02-11 17:26:00,
2013-02-11 19:31:00,47.5,12.5,30.04,WSW,251,0.0,6.3,24,0.00, ,SKC,-99.99,VWS V12.07,2013-02-11 17:31:00,
2013-02-11 19:36:00,47.3,15.0,30.04,West,276,3.6,6.3,27,0.00, ,SKC,-99.99,VWS V12.07,2013-02-11 17:36:00,
2013-02-11 19:41:00,47.3,15.0,30.04,West,271,2.2,2.7,27,0.00, ,SKC,-99.99,VWS V12.07,2013-02-11 17:41:00,
2013-02-11 19:46:00,47.1,14.9,30.04,West,279,3.1,5.4,27,0.00, ,SKC,-99.99,VWS V12.07,2013-02-11 17:46:00,
2013-02-11 19:51:00,47.1,14.9,30.04,WSW,257,0.0,5.4,27,0.00, ,SKC,-99.99,VWS V12.07,2013-02-11 17:51:00,
2013-02-11 19:56:00,46.9,14.7,30.04,WSW,258,0.0,5.4,27,0.00, ,SKC,-99.99,VWS V12.07,2013-02-11 17:56:00,
2013-02-11 20:01:00,46.8,14.6,30.07,West,266,3.1,3.1,27,0.00, ,SKC,-99.99,VWS V12.07,2013-02-11 18:01:00,
2013-02-11 20:06:00,46.8,14.6,30.07,West,266,0.0,3.1,27,0.00, ,SKC,-99.99,VWS V12.07,2013-02-11 18:06:00,
2013-02-11 20:11:00,46.6,14.4,30.07,West,263,2.2,3.1,27,0.00, ,SKC,-99.99,VWS V12.07,2013-02-11 18:11:00,
2013-02-11 20:16:00,46.6,15.2,30.07,West,263,2.2,3.1,28,0.00, ,SKC,-99.99,VWS V12.07,2013-02-11 18:16:00,
2013-02-11 20:21:00,46.4,15.1,30.07,West,263,0.0,0.0,28,0.00, ,SKC,-99.99,VWS V12.07,2013-02-11 18:21:00,
2013-02-11 20:26:00,46.4,15.1,30.07,West,279,0.0,4.0,28,0.00, ,SKC,-99.99,VWS V12.07,2013-02-11 18:26:00,
2013-02-11 20:31:00,46.2,14.9,30.07,West,279,0.0,4.0,28,0.00, ,SKC,-99.99,VWS V12.07,2013-02-11 18:31:00,
2013-02-11 20:36:00,46.0,14.8,30.07,West,279,0.0,4.0,28,0.00, ,SKC,-99.99,VWS V12.07,2013-02-11 18:36:00,
2013-02-11 20:41:00,45.9,15.4,30.07,West,279,0.0,0.0,29,0.00, ,SKC,-99.99,VWS V12.07,2013-02-11 18:41:00,
2013-02-11 20:46:00,45.9,15.4,30.07,West,279,0.0,0.0,29,0.00, ,SKC,-99.99,VWS V12.07,2013-02-11 18:46:00,
2013-02-11 20:51:00,45.7,16.0,30.07,West,279,0.0,0.0,30,0.00, ,SKC,-99.99,VWS V12.07,2013-02-11 18:51:00,
2013-02-11 20:56:00,45.7,16.0,30.07,West,279,0.0,0.0,30,0.00, ,SKC,-99.99,VWS V12.07,2013-02-11 18:56:00,
2013-02-11 21:01:00,45.7,16.0,30.07,West,279,0.0,0.0,30,0.00, ,SKC,-99.99,VWS V12.07,2013-02-11 19:01:00,
2013-02-11 21:06:00,45.5,16.6,30.07,West,279,0.0,0.0,31,0.00, ,SKC,-99.99,VWS V12.07,2013-02-11 19:06:00,
2013-02-11 21:11:00,45.3,16.5,30.07,West,279,0.0,0.0,31,0.00, ,SKC,-99.99,VWS V12.07,2013-02-11 19:11:00,
2013-02-11 21:17:00,45.1,17.1,30.07,West,279,0.0,0.0,32,0.00, ,SKC,-99.99,VWS V12.07,2013-02-11 19:17:00,
2013-02-11 21:23:00,45.1,17.1,30.07,West,279,0.0,0.0,32,0.00, ,SKC,-99.99,VWS V12.07,2013-02-11 19:23:00,
2013-02-11 21:28:00,45.1,17.1,30.07,West,279,0.0,0.0,32,0.00, ,SKC,-99.99,VWS V12.07,2013-02-11 19:28:00,
2013-02-11 23:13:00,45.3,18.6,30.07,West,267,0.0,0.0,34,0.00, ,SKC,-99.99,VWS V12.07,2013-02-11 21:13:00,
2013-02-11 23:18:00,45.1,19.1,30.07,West,267,0.0,0.0,35,0.00, ,SKC,-99.99,VWS V12.07,2013-02-11 21:18:00,
2013-02-11 23:24:00,45.1,19.1,30.07,West,267,0.0,0.0,35,0.00, ,SKC,-99.99,VWS V12.07,2013-02-11 21:24:00,
2013-02-11 23:29:00,45.0,19.0,30.10,West,267,0.0,0.0,35,0.00, ,SKC,-99.99,VWS V12.07,2013-02-11 21:29:00,
2013-02-11 23:34:00,45.0,19.6,30.10,West,267,0.0,0.0,36,0.00, ,SKC,-99.99,VWS V12.07,2013-02-11 21:34:00,
2013-02-11 23:39:00,44.8,20.1,30.10,West,267,0.0,0.0,37,0.00, ,SKC,-99.99,VWS V12.07,2013-02-11 21:39:00,
2013-02-11 23:44:00,45.0,20.3,30.10,West,267,0.0,0.0,37,0.00, ,SKC,-99.99,VWS V12.07,2013-02-11 21:44:00,
2013-02-11 23:49:00,45.0,20.3,30.10,West,267,0.0,0.0,37,0.00, ,SKC,-99.99,VWS V12.07,2013-02-11 21:49:00,
2013-02-11 23:54:00,44.8,20.1,30.10,West,267,0.0,0.0,37,0.00, ,SKC,-99.99,VWS V12.07,2013-02-11 21:54:00,